Regional Weather Roundup
Issued by NWS

Home | Current Version | Previous Version | Text Only | Print | Product List | Glossary Off
Versions: 1 2 3 4 5 6 7 8 9 10 11 12 13 14 15 16 17 18 19 20 21 22 23 24 25 26 27 28 29 30 31 32 33 34 35 36 37 38 39 40 41 42 43 44 45 46 47 48 49 50

000
ASUS43 KMKX 280000
RWRWI

WISCONSIN REGIONAL WEATHER ROUNDUP
NATIONAL WEATHER SERVICE MILWAUKEE/SULLIVAN WI
700 PM CDT MON APR 27 2015

NOTE: "FAIR" INDICATES FEW OR NO CLOUDS BELOW 12,000 FEET WITH NO
SIGNIFICANT WEATHER AND/OR OBSTRUCTIONS TO VISIBILITY.

WIZ001-002-006>008-014>016-023>028-280100-
NORTHWEST WISCONSIN

CITY           SKY/WX    TMP DP  RH WIND       PRES   REMARKS
SUPERIOR ARPT  MOSUNNY   49  31  49 NE9       30.14R
ASHLAND        SUNNY     53  37  54 N7        30.16F
6HR MIN TEMP:  53; 6HR MAX TEMP:  64;

HAYWARD        SUNNY     65  25  22 N10       30.14S
6HR MIN TEMP:  61; 6HR MAX TEMP:  66;

SIREN          SUNNY     67  22  18 NE8       30.13F
CUMBERLAND     SUNNY     64  23  20 N5        30.13S
RICE LAKE      SUNNY     64  29  26 N7        30.14S
CHETEK         SUNNY     65  32  29 N7        30.12S
LADYSMITH      SUNNY     64  30  28 N10       30.14S
6HR MIN TEMP:  61; 6HR MAX TEMP:  67;

EAU CLAIRE     NOT AVBL
MENOMONIE      SUNNY     67  25  20 N9        30.11F
6HR MIN TEMP:  63; 6HR MAX TEMP:  69;

NEW RICHMOND   SUNNY     67  20  16 N9        30.14S
OSCEOLA        SUNNY     67  24  19 W7        30.16S
$$

WIZ003>005-009-010-017-018-280100-
NORTH CENTRAL WISCONSIN

CITY           SKY/WX    TMP DP  RH WIND       PRES   REMARKS
MANITOWISH WTR CLEAR     56  27  32 NE7       30.15S
ARBOR VITAE    CLEAR     57  26  30 NE7       30.15R
WOODRUFF       CLEAR     57  26  30 NE7       30.15R
RHINELANDER    CLEAR     58  26  29 N7        30.14R
6HR MIN TEMP:  58; 6HR MAX TEMP:  62;

EAGLE RIVER    CLEAR     57  23  27 N9        30.13F
LAND O LAKES   CLEAR     56  25  31 N12       30.15S
PHILLIPS       CLEAR     59  29  31 NE12      30.14S
6HR MIN TEMP:  58; 6HR MAX TEMP:  63;

TOMAHAWK       CLEAR     60  26  27 NW8       30.13S
MEDFORD        CLEAR     62  31  31 N13       30.12R
MERRILL        CLEAR     63  31  29 N10       30.11R
$$

WIZ029-030-035-036-043>047-280100-
CENTRAL WISCONSIN

CITY           SKY/WX    TMP DP  RH WIND       PRES   REMARKS
WAUSAU         CLEAR     64  26  23 N8        30.08R
6HR MIN TEMP:  60; 6HR MAX TEMP:  67;

MOSINEE        NOT AVBL
MARSHFIELD     CLEAR     65  29  25 N13       30.10R
6HR MIN TEMP:  62; 6HR MAX TEMP:  69;

STEVENS POINT  CLEAR     64  28  26 N10G18    30.09R
WAUPACA        CLEAR     68  26  21 NE8G16    30.07R
6HR MIN TEMP:  64; 6HR MAX TEMP:  70;

WAUTOMA        NOT AVBL
WISC RAPIDS    CLEAR     66  26  22 N12       30.09S
6HR MIN TEMP:  61; 6HR MAX TEMP:  69;

CAMP DOUGLAS   NOT AVBL
$$

WIZ011>013-019>022-031-037>040-048>050-280100-
NORTHEAST WISCONSIN

CITY           SKY/WX    TMP DP  RH WIND       PRES   REMARKS
ANTIGO         CLEAR     60  29  30 N14       30.10S
SHAWANO        CLEAR     60  36  39 E9        30.09S
6HR MIN TEMP:  60; 6HR MAX TEMP:  68;

OCONTO         CLEAR     52  35  52 E7        30.11R
STURGEON BAY   CLEAR     46  30  53 E6        30.14S
6HR MIN TEMP:  46; 6HR MAX TEMP:  57;

GREEN BAY      CLEAR     55  38  52 E13       30.11R
6HR MIN TEMP:  55; 6HR MAX TEMP:  62;

MANITOWOC      NOT AVBL
APPLETON       CLEAR     63  30  29 NE7       30.09R
CLINTONVILLE   CLEAR     63  32  31 E7        30.08R
OSHKOSH        CLEAR     57  38  48 SE12      30.08S
6HR MIN TEMP:  56; 6HR MAX TEMP:  62;

$$

WIZ032>034-041-042-053>061-280100-
SOUTHWEST WISCONSIN

CITY           SKY/WX    TMP DP  RH WIND       PRES   REMARKS
LA CROSSE      SUNNY     68  31  25 N8        30.09F
6HR MIN TEMP:  62; 6HR MAX TEMP:  70;

SPARTA         CLEAR     67  29  23 NW8       30.10S
VIROQUA        CLEAR     64  30  28 N7        30.10S
BOSCOBEL       CLEAR     67  31  26 N7        30.09F
6HR MIN TEMP:  63; 6HR MAX TEMP:  69;

PRAIRIE DU CHI CLEAR     65  28  25 N5        30.10S
PLATTEVILLE    CLEAR     64  32  30 N10       30.09S
$$

WIZ056-057-062-063-064-067-068-280100-
SOUTH CENTRAL WISCONSIN

CITY           SKY/WX    TMP DP  RH WIND       PRES   REMARKS
REEDSBURG      CLEAR     64  33  30 NW9       30.08S
BARABOO/DELLS  CLEAR     65  28  24 N6        30.08S
LONE ROCK      NOT AVBL
MINERAL POINT  CLEAR     64  27  24 N7        30.09S
MADISON        PTCLDY    64  31  28 N7        30.07S
6HR MIN TEMP:  61; 6HR MAX TEMP:  67;

MIDDLETON      CLEAR     66  26  21 N6        30.08S
WATERTOWN      CLEAR     57  37  47 E10       30.08S
MONROE         CLEAR     63  32  31 N7        30.07F
JANESVILLE     PTCLDY    63  28  27 E12       30.07F
$$

WIZ051-052-058>065-066-070>072-280100-
SOUTHEAST WISCONSIN

CITY           SKY/WX    TMP DP  RH WIND       PRES   REMARKS
MILWAUKEE      PTCLDY    46  32  58 NE7       30.13F
6HR MIN TEMP:  45; 6HR MAX TEMP:  51;

WAUKESHA       CLEAR     50  34  53 E9        30.11F
MILWAUKEE/TIMM CLEAR     48  30  49 NE9       30.12S
RACINE         PTCLDY    46  32  58 NE7       30.13F
6HR MIN TEMP:  46; 6HR MAX TEMP:  52;

BURLINGTON     PTCLDY    50  34  53 SE7       30.11F
KENOSHA        PTCLDY    48  34  58 E8        30.11F
6HR MIN TEMP:  48; 6HR MAX TEMP:  56;

FOND DU LAC    CLEAR     57  38  48 SE13      30.08S
6HR MIN TEMP:  57; 6HR MAX TEMP:  63;

SHEBOYGAN      CLEAR     47  33  58 E9        30.12S
6HR MIN TEMP:  47; 6HR MAX TEMP:  52;

WEST BEND      CLEAR     50  32  50 E9        30.10F
JUNEAU         CLEAR     60  33  36 E7        30.09S
$$

LSZ147-162-280100-
LAKE SUPERIOR

STATION/POSITION TIME  TEMP    WIND        PRES    WAVE
                       AIR SEA DIR/SP/G            HT/PER
                 (UTC) (F)     (DEG/KT/KT) (MB)    (FT/S)
W MID LAKE BUOY  2250   38 35   CALM  /  2 1023.5F   0
DEVILS ISLAND    2300   51     130/  7/  9 1021.9F
PORT WING        2340   41      20/ 11/ 13 1020.7F
SAXON HARBOR     2300   51        CALM     1021.3F
$$

LMZ867-665-643>646-280100-
LAKE MICHIGAN

STATION/POSITION TIME  TEMP    WIND        PRES    WAVE
                       AIR SEA DIR/SP/G            HT/PER
                 (UTC) (F)     (DEG/KT/KT) (MB)    (FT/S)
CHAMBERS ISLAND  2300   48      60/ 12/ 15 1019.6R
NORTHPORT PIER   2300   46     140/  4/  5 1020.0R
SISTER BAY       2332   52      20/  7/ 10   N/A
KEWAUNEE LAKESHO 2300   44      CALM  /  3 1019.3R
SHEBOYGAN LAKESH 2300   43      40/  3/  4 1020.9S
PORT WASHINGTON  2300   47      40/  3/  5 1021.0
MILWAUKEE LAKESH 2300   43      40/  5/  7   N/A
KENOSHA   LAKESH 2300   43      20/  8/  9 1020.3S
$$

TC  - TEMPERATURE IN CELSIUS
VSB - VISIBILITY IN STATUTE MILES
WCI - WIND CHILL INDEX
HX  - HEAT INDEX



USA.gov is the U.S. government's official web portal to all federal, state and local government web resources and services.